Location: Quedlinburg
(51.7921°N, 11.1414°E)
Time: 05:28:32
(UTC+02:00)

STRAND 1 - Pass Details

Date: 17 March 2026
Orbit: 761 x 775 km, 98.4° (Epoch: 16 April)

Event Time Altitude Azimuth Distance (km) Brightness Sun altitude
Rises 20:10:46 0° 5° (N) 3,244 ? -17.1°
Reaches altitude 10° 20:13:50 10° 346° (NNW) 2,311 ? -17.5°
Maximum altitude 20:16:59 17° 307° (NW) 1,870 ? -18.0°
Drops below altitude 10° 20:20:08 10° 268° (W) 2,299 ? -18.4°
Sets 20:23:11 0° 249° (WSW) 3,220 ? -18.9°
